Weather Roundup
Issued by NWS

Home | Current Version | Previous Version | Graphics & Text | Print | Product List | Glossary Off
Versions: 1 2 3 4 5 6 7 8 9 10 11 12 13 14 15 16 17 18 19 20 21 22 23 24 25 26 27 28 29 30 31 32 33 34 35 36 37 38 39 40 41 42 43 44 45 46 47 48 49 50

000
NZUS93 KARX 271310
HRRWXR

CURRENT HOURLY OBSERVATIONS ACROSS
MUCH OF THE UPPER MISSISSIPPI VALLEY
NATIONAL WEATHER SERVICE LA CROSSE WI
800 AM CDT WED MAY 27 2015


...SOUTHEAST MINNESOTA...


CITY           SKY/WX    TMP DP  RH WIND       PRES   REMARKS
ROCHESTER      PTSUNNY   60  57  89 W9        29.97R
ROCHESTER/MAYO FAIR      58  58 100 CALM      29.95R
WINONA         CLOUDY    59  55  88 NW5       29.95R
AUSTIN         PTSUNNY   59  55  88 W3        29.96R
ALBERT LEA     PTSUNNY   61  55  82 W3        29.96R
DODGE CENTER   PTSUNNY   61  57  88 W7        29.95R
PRESTON        PTSUNNY   57  55  93 NW6       29.96R FOG
OWATONNA       PTSUNNY   59  55  88 SW5       29.95R
FARIBAULT      PTSUNNY   57  57 100 S5        29.94S
$$

...ELSEWHERE IN MINNESOTA...


CITY           SKY/WX    TMP DP  RH WIND       PRES   REMARKS
MINNEAPOLIS    PTSUNNY   59  57  93 SW5       29.92R
INTNL FALLS    SUNNY     59  52  77 NW7       29.83R
DULUTH         PTSUNNY   64  53  67 NW8       29.83R
RED WING       PTSUNNY   61  57  88 W5        29.92R
REDWOOD FALLS  SUNNY     61  53  75 W8        29.92R
MANKATO        PTSUNNY   59  55  88 SW8       29.94S
WORTHINGTON    SUNNY     61  52  72 W12       29.98R
FAIRMONT       PTSUNNY   63  52  67 SW10      29.96R
$$

...SOUTHWEST WISCONSIN...


CITY           SKY/WX    TMP DP  RH WIND       PRES   REMARKS
LA CROSSE      PTSUNNY   62  57  83 NW6       29.94R
PRAIRIE DU CHI CLOUDY    61  56  83 W7        29.95R
BOSCOBEL       LGT RAIN  61  57  87 NW8       29.93R FOG
LONE ROCK      CLOUDY    62  58  86 W9        29.92R
PLATTEVILLE    CLOUDY    61  59  95 W12       29.94R
FORT MC COY    CLOUDY    58  56  92 W5        29.94R
CAMP DOUGLAS   CLOUDY    61  55  82 NW6       29.92R
VIROQUA        CLOUDY    58  58 100 NW8       29.94R
WIS DELLS      CLOUDY    58  56  91 W9        29.90R
$$

...ELSEWHERE IN WISCONSIN...


CITY           SKY/WX    TMP DP  RH WIND       PRES   REMARKS
MILWAUKEE      PTSUNNY   64  57  78 W12       29.88R
MADISON        CLOUDY    62  57  83 W6        29.89R
GREEN BAY      CLOUDY    61  56  83 W13       29.82R
EAU CLAIRE     CLOUDY    58  55  90 SW8       29.91R
BLACK RVR FLS  CLOUDY    59  59  99 W6        29.92R
MEDFORD        LGT RAIN  54  54  99 W6        29.89R
WAUSAU         LGT RAIN  55  54  96 W6        29.86R
WIS RAPIDS     CLOUDY    57  54  89 NW9       29.90R
MARSHFIELD     LGT RAIN  57  53  86 W8G17     29.90R
RICE LAKE      PTSUNNY   56  53  92 CALM      29.91S
$$

...NORTHEAST IOWA...


CITY           SKY/WX    TMP DP  RH WIND       PRES   REMARKS
DECORAH        PTSUNNY   59  57  94 W6        29.95R FOG
MASON CITY     MOSUNNY   60  57  89 W12       29.99R
CHARLES CITY   MOSUNNY   59  59 100 W9        29.98R
OELWEIN        CLOUDY    59  57  94 W7G14     29.97S
$$

...ELSEWHERE IN IOWA...


CITY           SKY/WX    TMP DP  RH WIND       PRES   REMARKS
DES MOINES     MOSUNNY   62  55  77 W6        30.00S
IOWA CITY      PTSUNNY   63  59  87 W7        30.00R
FORT DODGE     MOSUNNY   61  55  82 SW5       30.01R
$$

...NORTHERN ILLINOIS...


CITY           SKY/WX    TMP DP  RH WIND       PRES   REMARKS
CHICAGO-OHARE  PTSUNNY   66  59  78 W20       29.93R
CHICAGO-MIDWAY PTSUNNY   69  62  78 SW21      29.94R
MOLINE         CLOUDY    64  59  83 W10       29.97R
ROCKFORD       CLOUDY    65  59  81 W10G21    29.93R
PEORIA         CLOUDY    68  63  84 SW7       29.99R
$$

NOTE: "FAIR" INDICATES FEW OR NO CLOUDS BELOW 12,000 FEET WITH NO
SIGNIFICANT WEATHER AND/OR OBSTRUCTIONS TO VISIBILITY. WIND
SPEEDS ARE IN MILES-PER-HOUR.



USA.gov is the U.S. government's official web portal to all federal, state and local government web resources and services.